DELTA 1 DEB, 10201

Orbit data source: Space-Track

DELTA 1 DEB, 10201 is space debris in LEO originally from a launch on Thu, 14 Jul 1977 UTC launched from the Air Force Eastern Test Range (AFETR). Debris objects in space refer to the collection of defunct objects orbiting the Earth. Examples of debris include non-operational satellites, rocket bodies, and fragments generated from explosions, collisions, or faulty payload assembly.

Loading next visibility...
Identifier
10201, 1977-065AE
Orbit
LEO
Country
Flag of USUS
Related business
Manufacturer
Unknown
Mission
Spacecraft
Bus & Motor
Unknown
Mass
Unknown
Launch date (UTC)
1977-07-14 (48 years ago)
Launch vehicle
Unknown
Launch site
Air Force Eastern Test Range (AFETR)
Object type
Payload
Rocket body
Debris
Shape & HBR
Unknown shape, 0.2 m
Radar Cross Section
Medium (>0.1 m² and <1 m²)

Expand to show TLE details & history
Last TLE update: 22 hours ago

TLE from 22 hours ago
0 DELTA 1 DEB
1 10201U 77065AE  25351.20507199  .00003233  00000-0  60559-3 0  9997
2 10201  29.0866 265.8640 0667151  20.8336 341.8138 13.74357065383807
Epoch: 2025-12-17T04:55Z
TLE epoch observation values (Epoch: 2025-12-17T04:55:18.219Z)
Latitude
-0.00001°
Longitude
105.9598°
Altitude
519.393 km
Speed
7.841 km/s
True Right ascension
17h 43m 27s
True Declination
0° 00' 00"
Sunlit
Object was in daylight at epoch
Visualization orbit readout
Latitude
Unknown
Longitude
Unknown
Altitude
Unknown
Speed
Unknown
Apparent Right ascension
Unknown
Apparent Declination
Unknown
Sunlit
N/A
Visualization observer readout
Local Sidereal Time
01:24:35
Azimuth
Unknown
Elevation
Unknown
Doppler factor
Unknown
Orbital elements
Apogee altitude
1,479.287 km
Perigee altitude
496.44 km
Semi-major axis
7,366.001 km
Eccentricity
0.06672
Inclination
29.0866°
RAAN
265.864°
Arg. of periapsis
20.8336°
True anomaly
339.22412°
Mean anomaly
341.8138°
Eccentric anomaly
340.54036°
Mean motion
3.43317 °/min
Orbital period
104.86 mins
BSTAR
0.00060559
Loading maneuver chart data...
Computing Atmospheric mass density...

Documentation

Showing up to 5 results
|